Wind_Speed
19 19 19 19 19 20 20 21 21 19 20 19 20 20 20 20 20 20 19 19 19 18 18 18 18 18 18 18 18 17 17 18 18 18 18 18 18 19 19 19 18 19 18 18
20 20 20 20 20 21 22 22 22 22 21 20 21 21 21 22 22 21 21 21 21 21 20 20 19 19 20 20 20 19 19 19 19 19 19 19 19 19 20 21 21 20 20 20
22 22 22 22 21 23 23 23 23 22 21 21 22 23 23 23 23 23 22 22 23 22 22 22 21 21 21 21 21 21 21 21 21 21 21 21 21 21 21 21 22 22 22 22
24 24 24 22 22 23 23 23 23 23 23 23 23 23 24 24 24 24 24 25 24 25 25 24 24 23 24 24 24 23 23 23 23 24 24 24 24 24 24 23 23 24 24 24
25 25 24 23 23 23 23 22 23 23 23 24 24 24 25 26 26 25 26 26 26 26 26 27 26 26 25 25 26 26 25 25 25 26 26 26 26 26 26 26 26 26 27 26
26 27 25 23 24 24 25 24 24 25 25 26 26 26 26 27 27 27 27 27 27 27 27 28 28 28 27 27 27 27 27 27 27 28 28 28 28 28 28 28 28 28 28 28
28 28 27 26 26 26 26 25 26 27 27 28 29 29 28 29 29 29 29 29 29 29 29 30 30 29 29 29 29 29 29 29 29 29 29 29 29 29 30 30 29 29 29 29
27 29 28 28 27 27 28 28 28 28 29 29 29 30 30 30 31 31 30 31 31 31 31 32 32 32 31 31 31 31 31 31 31 31 31 31 31 31 31 31 30 30 30 30
28 28 28 29 30 30 30 30 29 30 30 30 30 30 31 32 32 32 32 32 33 33 33 33 34 34 34 33 33 33 33 33 32 32 32 32 32 32 32 32 32 32 32 31
30 29 29 29 30 31 32 32 32 32 32 32 32 32 32 32 32 33 33 33 33 34 34 34 35 35 35 35 35 35 35 34 34 34 33 33 33 33 33 33 33 34 33 33
30 31 32 31 32 33 33 33 33 34 35 35 35 34 34 33 33 33 33 33 34 35 35 35 35 35 36 36 36 36 35 35 35 35 35 35 34 34 34 34 35 35 35 34
32 32 34 33 34 34 34 34 35 36 36 36 36 36 35 35 34 34 34 34 34 35 36 36 36 37 37 37 37 37 36 37 37 37 37 37 37 36 36 36 36 36 36 35
34 34 34 34 35 35 36 35 35 35 35 35 35 36 35 35 35 34 34 35 35 36 36 36 37 37 38 38 38 38 38 38 38 39 39 38 38 38 38 37 37 37 37 37
35 35 36 36 36 36 36 36 35 35 35 36 35 36 35 35 35 36 36 36 36 36 36 37 38 38 38 39 39 38 39 39 39 39 39 39 39 39 39 39 38 38 38 38
34 35 36 36 36 36 36 35 35 35 35 36 36 36 35 35 36 36 36 36 36 37 37 37 37 37 38 38 39 39 39 39 39 39 40 40 40 40 39 40 40 39 39 39
34 34 35 35 35 35 35 36 36 36 36 36 36 36 36 37 37 37 37 37 37 38 38 37 37 37 38 38 38 39 39 39 39 40 40 40 40 39 39 39 40 40 40 40
33 34 34 34 34 35 35 36 36 37 37 37 37 37 37 37 38 38 38 38 38 38 38 38 38 38 38 38 38 39 39 39 39 39 39 39 39 39 39 39 39 39 39 39
34 34 34 33 34 34 35 36 37 37 37 37 37 37 37 38 38 38 38 38 38 38 38 38 38 38 39 39 39 38 38 38 38 39 39 39 39 39 39 39 39 39 38 38
34 34 34 34 34 35 35 36 36 36 35 36 37 37 37 37 37 37 37 37 37 37 37 38 38 39 39 39 39 38 38 39 39 39 39 39 39 38 39 39 40 39 39 39
34 34 34 34 34 34 35 35 35 35 35 35 36 37 37 38 38 38 38 38 38 38 38 38 39 39 39 39 39 39 38 38 38 38 39 39 39 39 39 39 39 40 40 40
33 33 33 34 34 34 34 35 35 34 35 35 36 36 37 38 37 37 38 37 38 38 39 39 39 39 39 39 39 39 38 38 38 38 38 38 38 39 39 40 40 40 40 40
33 33 33 33 33 34 34 34 35 35 35 36 36 37 38 38 37 37 37 37 37 38 39 39 39 39 39 38 38 38 38 37 37 37 37 37 38 39 39 39 40 39 39 39
32 32 32 33 34 34 35 35 35 36 36 36 36 37 37 37 37 37 37 37 38 37 38 38 39 38 38 37 37 37 36 36 36 36 37 37 38 38 37 37 37 37 36 36
32 33 34 34 35 35 35 35 35 36 36 36 37 37 37 36 37 37 37 37 37 37 38 38 38 37 37 36 36 36 35 35 35 35 36 36 35 35 35 34 34 34 33 33
33 33 34 34 35 35 35 36 36 36 36 37 37 36 36 37 36 36 36 37 37 37 38 38 38 37 36 35 34 34 34 34 34 35 34 34 33 33 33 33 32 32 31 31
33 34 34 35 35 35 35 36 35 35 36 36 36 36 36 36 36 36 36 36 36 36 36 36 35 34 35 34 34 34 33 33 32 32 33 32 32 32 32 31 30 30 30 30
33 34 34 35 35 35 36 36 36 36 36 36 35 35 35 35 35 35 35 35 35 35 34 32 32 32 32 33 32 32 32 31 31 30 30 31 31 31 31 30 29 29 29 28
Wind_Direction
266 268 269 270 272 273 275 277 279 280 280 279 278 277 277 276 276 276 273 272 271 269 269 268 269 271 271 271 274 275 276 276 275 275 276 277 277 275 272 272 272 270 271 272
264 268 270 271 273 275 276 278 279 280 280 279 279 278 277 277 277 274 271 269 268 268 269 270 269 270 271 270 271 273 274 276 277 277 277 275 275 277 276 274 272 270 270 270
267 268 271 273 275 276 278 279 280 280 279 277 277 278 278 276 274 273 271 269 268 268 269 269 269 269 270 270 270 271 273 274 276 277 277 277 276 276 277 276 276 274 271 268
268 268 271 277 277 278 279 279 278 278 277 276 276 277 277 278 276 276 273 271 269 268 268 269 270 270 270 271 271 273 273 272 273 275 277 277 277 276 276 276 276 275 274 271
270 270 271 275 279 280 279 278 278 278 278 278 277 277 277 277 278 278 275 272 269 268 267 269 270 270 270 271 272 273 274 274 274 274 274 275 276 276 275 275 274 274 272 271
271 272 274 277 279 280 279 279 278 278 279 279 279 277 276 275 275 276 275 274 271 268 266 267 269 270 270 271 272 273 274 274 274 275 275 274 274 274 274 274 274 273 271 270
271 273 275 278 278 278 278 279 278 278 279 280 280 279 277 276 275 275 274 273 271 268 267 267 268 269 270 271 272 273 273 273 273 274 275 275 274 273 273 273 273 272 271 270
273 274 276 278 279 280 280 279 278 278 279 279 279 279 278 277 276 275 274 274 272 270 268 268 269 270 270 270 271 272 272 273 273 273 274 274 273 272 272 272 272 272 272 270
274 276 277 278 280 281 280 279 279 278 279 280 280 280 280 278 277 277 276 275 273 271 269 268 269 270 270 270 271 272 272 272 272 272 272 272 271 271 271 271 271 271 271 270
273 275 277 279 281 281 281 280 280 280 280 280 281 281 281 280 279 278 277 276 274 271 269 269 270 270 271 271 272 273 272 272 272 272 271 271 271 271 271 271 270 270 270 270
274 275 277 279 280 281 282 283 282 281 281 281 281 281 281 280 279 279 278 276 275 274 272 270 270 271 272 272 273 273 273 273 272 271 270 271 271 271 270 270 270 269 269 269
274 275 277 278 278 280 281 282 282 283 283 281 281 281 281 280 279 278 277 277 276 275 273 272 272 272 273 272 272 272 273 272 272 271 270 270 270 271 271 271 270 269 270 270
274 275 277 278 279 281 282 283 283 283 282 282 282 281 281 279 278 278 277 277 276 275 274 274 274 273 273 273 273 273 273 273 272 271 270 270 270 270 270 270 270 269 268 268
276 276 277 277 278 280 281 282 282 282 282 282 282 281 281 279 278 278 277 277 276 276 277 276 275 274 273 273 273 274 274 274 273 272 270 269 269 269 269 269 269 269 268 268
277 278 279 279 279 280 280 281 281 281 282 282 282 281 280 280 280 279 278 277 276 277 278 277 275 276 276 275 274 274 274 274 273 272 270 268 268 269 269 269 268 268 267 268
278 279 281 281 281 281 281 281 280 280 281 281 281 281 281 280 280 279 278 277 276 277 278 277 277 277 276 275 275 274 274 273 273 272 271 270 269 269 269 269 269 268 268 268
278 279 279 279 280 280 281 281 280 281 281 281 281 281 282 282 280 279 278 278 277 277 278 277 276 277 277 276 276 275 274 273 272 271 272 270 271 271 271 271 270 270 269 267
279 280 280 280 280 281 281 282 281 282 283 282 283 283 283 283 282 280 279 278 278 278 277 277 277 278 278 277 276 275 274 273 272 272 272 270 271 271 271 270 270 270 268 267
281 281 282 281 281 282 284 284 284 284 284 284 284 284 284 283 283 280 279 279 279 278 277 277 277 278 278 277 276 275 274 273 272 272 272 271 271 271 271 271 271 270 268 267
282 282 283 283 283 284 284 284 284 285 285 285 285 286 286 286 284 282 280 279 279 278 278 278 279 279 278 277 276 276 275 274 273 273 272 271 272 272 271 272 272 271 269 268
283 283 284 284 284 285 286 286 286 286 285 286 286 286 287 287 286 284 282 281 280 279 279 278 279 279 278 278 277 277 276 275 274 273 273 273 273 273 273 273 273 272 269 267
282 283 284 285 285 286 287 287 287 287 287 287 287 288 288 287 286 285 283 281 280 280 280 280 280 280 279 278 278 277 277 275 275 274 274 274 275 275 275 274 274 272 270 268
283 284 285 286 285 286 286 287 287 287 288 288 288 288 288 287 286 285 284 283 282 281 281 282 281 281 281 280 278 277 277 276 275 274 274 275 275 275 274 274 273 271 270 268
285 285 286 287 286 286 287 287 287 287 288 289 289 289 288 287 287 286 285 284 283 283 283 283 282 281 281 281 279 278 278 277 276 275 275 276 275 274 273 273 272 271 269 268
285 286 287 287 287 286 286 287 287 288 288 288 289 289 288 288 287 286 285 285 285 284 284 284 283 282 282 282 280 279 279 279 277 276 276 275 273 273 273 272 272 271 269 268
284 285 286 287 287 287 287 287 288 289 288 288 288 289 289 289 288 287 286 286 286 286 286 285 283 282 282 282 281 279 279 279 277 276 275 273 273 273 272 271 271 270 269 269
284 285 286 287 288 287 287 287 288 289 289 289 289 289 290 290 289 288 287 287 288 287 286 285 284 282 282 284 283 281 278 277 276 275 274 273 273 273 271 270 269 268 269 269
Height
5818 5818 5819 5819 5819 5818 5818 5817 5817 5818 5817 5817 5816 5815 5815 5814 5814 5814 5814 5813 5813 5813 5813 5812 5812 5812 5812 5812 5811 5811 5811 5810 5810 5810 5810 5809 5809 5808 5808 5807 5807 5807 5807 5807
5813 5813 5813 5813 5813 5813 5812 5812 5811 5811 5812 5811 5810 5809 5809 5808 5808 5808 5808 5807 5807 5807 5807 5807 5807 5806 5806 5806 5806 5806 5805 5805 5805 5804 5804 5804 5803 5803 5802 5802 5802 5801 5801 5801
5807 5807 5807 5808 5809 5807 5807 5806 5806 5805 5806 5804 5804 5803 5802 5802 5801 5801 5801 5801 5801 5801 5801 5801 5800 5800 5800 5800 5799 5799 5799 5799 5799 5799 5798 5798 5798 5797 5796 5796 5795 5795 5795 5795
5801 5802 5802 5805 5802 5801 5801 5800 5799 5799 5798 5798 5797 5797 5796 5795 5794 5794 5794 5793 5793 5793 5794 5794 5794 5793 5793 5793 5793 5792 5792 5792 5792 5792 5791 5791 5791 5790 5790 5789 5789 5789 5788 5788
5794 5794 5796 5797 5796 5795 5794 5794 5793 5792 5791 5791 5790 5789 5789 5788 5787 5787 5786 5786 5786 5786 5786 5786 5786 5786 5786 5785 5785 5785 5785 5785 5784 5784 5784 5783 5783 5783 5782 5781 5781 5781 5780 5780
5788 5788 5789 5791 5790 5788 5788 5787 5787 5785 5784 5783 5782 5782 5782 5780 5780 5779 5778 5778 5778 5778 5778 5778 5778 5777 5778 5778 5777 5777 5777 5776 5776 5775 5775 5775 5774 5774 5773 5773 5773 5772 5772 5772
5781 5780 5781 5783 5782 5781 5781 5781 5779 5777 5776 5775 5774 5774 5773 5772 5771 5771 5770 5770 5769 5769 5769 5769 5769 5769 5769 5770 5769 5769 5768 5768 5767 5766 5766 5765 5765 5764 5764 5764 5763 5763 5763 5763
5774 5774 5776 5775 5774 5774 5773 5772 5770 5769 5768 5767 5766 5765 5764 5763 5762 5762 5761 5761 5760 5760 5760 5760 5760 5760 5760 5760 5760 5759 5759 5758 5757 5757 5756 5756 5755 5755 5754 5754 5754 5754 5754 5754
5768 5769 5767 5766 5765 5765 5764 5763 5762 5761 5760 5759 5757 5756 5755 5754 5753 5752 5752 5751 5751 5750 5750 5750 5750 5750 5750 5750 5749 5749 5749 5748 5747 5747 5746 5746 5745 5745 5745 5744 5744 5744 5744 5744
5760 5760 5759 5758 5757 5756 5755 5754 5753 5752 5751 5749 5748 5747 5746 5745 5744 5742 5741 5741 5740 5740 5740 5740 5740 5739 5739 5738 5738 5738 5738 5737 5737 5736 5736 5735 5735 5734 5734 5734 5734 5734 5734 5734
5751 5752 5751 5751 5749 5748 5746 5745 5744 5743 5741 5739 5738 5737 5736 5735 5734 5732 5731 5730 5729 5729 5729 5729 5729 5729 5728 5727 5727 5726 5726 5726 5726 5726 5725 5725 5724 5724 5723 5723 5723 5723 5723 5723
5743 5743 5742 5742 5740 5739 5737 5736 5734 5733 5731 5729 5727 5726 5725 5724 5723 5722 5721 5719 5718 5718 5717 5717 5717 5717 5717 5716 5716 5715 5715 5715 5714 5714 5714 5713 5713 5713 5712 5712 5711 5711 5712 5712
5733 5733 5732 5731 5730 5729 5727 5726 5724 5722 5720 5719 5717 5715 5714 5713 5712 5711 5710 5709 5708 5707 5706 5706 5705 5705 5705 5704 5704 5703 5703 5703 5702 5702 5702 5701 5701 5701 5701 5701 5699 5699 5699 5700
5723 5722 5722 5721 5720 5719 5717 5715 5714 5712 5710 5708 5707 5705 5703 5702 5701 5700 5699 5698 5696 5696 5695 5694 5693 5693 5692 5691 5691 5691 5690 5690 5689 5689 5689 5689 5688 5688 5688 5688 5688 5687 5687 5687
5714 5713 5712 5711 5710 5708 5707 5705 5704 5702 5700 5698 5696 5694 5693 5691 5690 5688 5687 5686 5685 5684 5683 5682 5681 5681 5680 5679 5678 5678 5678 5677 5676 5676 5676 5676 5675 5675 5675 5674 5674 5675 5675 5674
5704 5703 5702 5701 5699 5698 5696 5695 5693 5692 5690 5688 5686 5684 5682 5680 5678 5677 5676 5674 5673 5673 5672 5670 5670 5669 5668 5666 5666 5665 5665 5664 5663 5663 5662 5662 5662 5662 5661 5661 5661 5661 5662 5662
5695 5693 5692 5691 5689 5688 5686 5684 5683 5681 5679 5677 5675 5673 5671 5669 5667 5665 5664 5663 5662 5661 5660 5659 5658 5657 5655 5654 5653 5652 5652 5651 5650 5649 5649 5649 5648 5648 5648 5648 5648 5648 5648 5648
5684 5683 5682 5680 5679 5677 5676 5674 5672 5670 5668 5666 5664 5662 5660 5658 5656 5654 5652 5651 5650 5649 5648 5646 5645 5644 5643 5642 5640 5639 5639 5638 5637 5637 5636 5636 5636 5635 5635 5635 5635 5635 5635 5635
5674 5673 5672 5670 5669 5667 5665 5663 5661 5659 5657 5655 5653 5651 5648 5646 5643 5642 5640 5639 5638 5637 5636 5634 5633 5632 5631 5629 5628 5627 5626 5625 5625 5624 5624 5623 5623 5623 5622 5622 5622 5622 5622 5622
5664 5663 5661 5660 5658 5656 5655 5653 5650 5648 5646 5644 5642 5640 5637 5634 5632 5630 5629 5627 5626 5625 5624 5623 5621 5620 5619 5617 5616 5615 5614 5613 5612 5611 5611 5610 5610 5610 5610 5609 5609 5608 5608 5608
5654 5653 5651 5649 5648 5646 5644 5642 5640 5638 5636 5633 5631 5629 5626 5623 5621 5619 5617 5616 5614 5613 5612 5610 5609 5608 5606 5605 5603 5602 5601 5600 5599 5599 5598 5598 5597 5597 5597 5596 5595 5595 5594 5595
5644 5642 5641 5639 5637 5635 5633 5631 5629 5627 5625 5623 5620 5618 5615 5613 5610 5608 5606 5604 5603 5601 5600 5598 5597 5595 5593 5592 5591 5589 5588 5587 5587 5586 5586 5585 5584 5584 5583 5583 5582 5581 5581 5581
5634 5632 5631 5629 5627 5625 5623 5621 5619 5616 5614 5612 5609 5607 5604 5601 5599 5597 5595 5593 5591 5589 5588 5586 5584 5583 5581 5579 5578 5577 5576 5575 5574 5574 5573 5573 5572 5571 5570 5569 5569 5568 5568 5568
5624 5622 5620 5618 5616 5614 5612 5610 5608 5605 5603 5601 5598 5595 5593 5590 5588 5585 5583 5582 5580 5578 5576 5574 5572 5571 5569 5567 5566 5565 5564 5563 5562 5562 5561 5560 5559 5558 5557 5557 5557 5556 5556 5556
5613 5611 5610 5608 5606 5603 5601 5599 5597 5595 5592 5589 5587 5584 5582 5579 5577 5575 5572 5570 5568 5566 5565 5563 5561 5559 5557 5556 5555 5554 5553 5552 5551 5550 5549 5548 5548 5547 5546 5546 5546 5545 5545 5546
5603 5601 5599 5597 5595 5593 5590 5588 5586 5583 5581 5578 5576 5573 5571 5568 5566 5563 5561 5559 5557 5555 5553 5551 5549 5548 5546 5545 5544 5543 5542 5541 5540 5539 5538 5537 5537 5536 5536 5535 5535 5535 5535 5535
5592 5590 5588 5586 5584 5582 5579 5577 5575 5573 5570 5567 5565 5563 5560 5557 5555 5552 5550 5548 5546 5543 5541 5540 5538 5537 5535 5534 5533 5531 5530 5529 5529 5528 5527 5526 5526 5525 5525 5525 5525 5525 5525 5525